Regional Weather Roundup
Issued by NWS Jackson, KY

Home | Current Version | Previous Version | Text Only | Print | Product List | Glossary Off
Versions: 1 2 3 4 5 6 7 8 9 10 11 12 13 14 15 16 17 18 19 20 21 22 23 24 25 26 27 28

000
ASUS43 KJKL 170010
RWRJKL

EAST KENTUCKY HOURLY WEATHER ROUNDUP
NATIONAL WEATHER SERVICE JACKSON KY
800 PM EDT MON OCT 16 2017

NOTE: "FAIR" INDICATES FEW OR NO CLOUDS BELOW 12,000 FEET WITH
NO SIGNIFICANT WEATHER AND/OR OBSTRUCTIONS TO VISIBILITY.

* THESE REPORTS ARE NOT UNDER NWS QUALITY CONTROL AND MAY NOT
  REPORT WEATHER SUCH AS PRECIPITATION AND FOG.

KYZ079-080-083-085-087-088-110-112-115-119-120-170100
...EASTERN KENTUCKY...

CITY           SKY/WX    TMP DP  RH WIND       PRES   REMARKS
JACKSON        CLEAR     52  39  61 CALM      30.29R
6HR MIN TEMP:  52; 6HR MAX TEMP:  61;

LONDON         CLEAR     52  40  63 CALM      30.28S
6HR MIN TEMP:  52; 6HR MAX TEMP:  62;

SOMERSET*      CLEAR     50  39  66 CALM      30.30S
MONTICELLO*    CLEAR     48  42  80 NW9       30.31R
6HR MIN TEMP:  48; 6HR MAX TEMP:  62;

WILLIAMSBURG*  CLEAR     48  41  76 CALM      30.29R
MIDDLESBORO*   PTCLDY    50  42  73 CALM      30.29R
6HR MIN TEMP:  50; 6HR MAX TEMP:  63;

HARLAN APT*    PTCLDY    50  39  66 NW3       30.28R
PIKE CO APT*     N/A     52  38  59 N5        30.28R
BIG SANDY APT* CLEAR     51  40  66 CALM      30.29R
6HR MIN TEMP:  51; 6HR MAX TEMP:  62;

MOREHEAD APT*  CLEAR     52  39  62 CALM      30.31R
$$

KYZ035-036-041-042-044-050-067-078-099-170100
...CENTRAL KENTUCKY...

CITY           SKY/WX    TMP DP  RH WIND       PRES   REMARKS
MT STERLING*   CLEAR     50  41  71 CALM      30.31R
FLEMING/MASON* PTCLDY    53  37  56 N3        30.31R
DANVILLE*      CLEAR     48  41  76 CALM      30.30S
LEXINGTON      CLEAR     53  42  66 CALM      30.30R
6HR MIN TEMP:  51; 6HR MAX TEMP:  63;

FRANKFORT      CLEAR     50  41  71 CALM      30.29R
6HR MIN TEMP:  50; 6HR MAX TEMP:  64;

LOUISVILLE     CLEAR     59  37  44 NE3       30.30R
6HR MIN TEMP:  58; 6HR MAX TEMP:  65;

LEBANON*         N/A     50  41  71 CALM      30.30S
GLASGOW*       CLEAR     52  42  67 CALM      30.30R
BOWLING GREEN  CLEAR     57  42  57 CALM      30.30R
6HR MIN TEMP:  57; 6HR MAX TEMP:  65;

$$

KYZ091>093-OHZ055-061-077-WVZ005-015-034-035-042-170100
...SOUTHERN OHIO/WEST VIRGINIA...

CITY           SKY/WX    TMP DP  RH WIND       PRES   REMARKS
COVINGTON      CLEAR     52  40  63 NW3       30.29R
COLUMBUS       PTCLDY    52  39  61 NE3       30.28R
DAYTON         CLEAR     51  38  60 W3        30.30R
WILMINGTON     CLEAR     49  39  68 NE5       30.29R
HUNTINGTON     CLEAR     54  38  54 N5        30.28R
CHARLESTON     CLEAR     52  38  58 CALM      30.27R
PINEVILLE*     MOCLDY    46  40  82 MISG      30.32R
BECKLEY        CLEAR     45  36  70 NW6       30.26R
BLUEFIELD      PTCLDY    45  33  63 CALM      30.27R
LOGAN CO APT*    N/A     52  37  58 CALM      30.27R
$$

VAZ002-007-008-TNZ017-027-036-066-071-170100
...SOUTHWEST VIRGINIA/EAST TENNESSEE...

CITY           SKY/WX    TMP DP  RH WIND       PRES   REMARKS
WISE*          CLEAR     46  37  71 N5        30.28S
JONESVILLE*      N/A     50  39  66 CALM      30.29R
ABINGDON*      PTCLDY    51  39  63 CALM      30.26R
BRISTOL        PTCLDY    51  39  63 N5        30.26R
MORRISTOWN*    CLEAR     54  39  58 N5        30.26R
SEVIERVILLE*   CLEAR     54  45  71 CALM      30.25R
KNOXVILLE      PTCLDY    56  45  66 N5        30.24R
LAFOLLETTE*    CLEAR     54  41  62 CALM      30.31R
OAK RIDGE      CLEAR     55  43  63 CALM      30.27R
CROSSVILLE     CLEAR     51  39  63 N5        30.27R
NASHVILLE      CLEAR     57  41  55 N8        30.29R
$$

...KEY TO REMARKS...
VSB - VISIBILITY IN MILES
WCI - WIND CHILL INDEX
HX  - HEAT INDEX

$$




USA.gov is the U.S. government's official web portal to all federal, state and local government web resources and services.